Regional Weather Roundup
Issued by NWS

Home | Current Version | Previous Version | Graphics & Text | Print | Product List | Glossary On
Versions: 1 2 3 4 5 6 7 8 9 10 11 12 13 14 15 16 17 18 19 20 21 22 23 24 25 26 27 28 29 30 31 32 33 34 35 36 37 38 39 40 41 42 43 44 45 46 47 48 49 50
000
ASUS45 KPSR 291400
RWRAZ

PRELIMINARY ARIZONA REGIONAL HOURLY WEATHER ROUNDUP
NATIONAL WEATHER SERVICE PHOENIX AZ
700 AM MST TUE JUL 29 2014

NOTE: FAIR INDICATES FEW OR NO CLOUDS BELOW 12,000 FEET WITH NO
SIGNIFICANT WEATHER AND/OR OBSTRUCTIONS TO VISIBILITY.

AZZ001>003-036-291500-
NORTHWEST ARIZONA

CITY           SKY/WX    TMP DP  RH WIND       PRES   REMARKS
KINGMAN        SUNNY     73  58  59 SE5       30.14R
$$

AZZ004>008-015-016-018-291500-
NORTH CENTRAL ARIZONA

CITY           SKY/WX    TMP DP  RH WIND       PRES   REMARKS
GRAND CANYON   SUNNY     58  52  80 CALM      30.38R
WILLIAMS       SUNNY     57  54  88 SE7       30.45R
PRESCOTT       SUNNY     65  57  75 CALM      30.27S
FLAGSTAFF      SUNNY     58  51  78 CALM      30.42R
PAYSON         SUNNY     70  55  60 CALM      30.30R
PAGE           SUNNY     77  53  43 SE3       30.21S
$$

AZZ009>014-017-291500-
NORTHEAST ARIZONA

CITY           SKY/WX    TMP DP  RH WIND       PRES   REMARKS
WINSLOW        NOT AVBL
SAINT JOHNS    SUNNY     67  57  70 SE3       30.32R
WINDOW ROCK    SUNNY     62  58  86 CALM      30.40R
$$

AZZ023-291500-
GREATER PHOENIX AREA

CITY           SKY/WX    TMP DP  RH WIND       PRES   REMARKS
PHOENIX        MOSUNNY   93  59  31 VRB3      29.95R
BUCKEYE          N/A     88  57  35 CALM      29.97R
GLENDALE       MOSUNNY   90  59  35 SW5       29.97S
DEER VALLEY    SUNNY     87  61  41 E3        29.98R
SCOTTSDALE     SUNNY     88  63  43 CALM      30.00R
MESA-FALCON    MOSUNNY   88  59  37 N9        29.98R
MESA-GATEWAY   MOSUNNY   84  63  48 SE5       30.00R
CHANDLER       MOSUNNY   88  64  45 CALM      29.98R
$$

AZZ027-028-291500-
SOUTHWEST MARICOPA COUNTY AND PINAL COUNTY

CITY           SKY/WX    TMP DP  RH WIND       PRES   REMARKS
CASA GRANDE    SUNNY     84  57  39 CALM      30.01R
GILA BEND      SUNNY     88  57  35 S3        29.96
$$

AZZ503-504-507>509-291500-
SOUTHEAST ARIZONA

CITY           SKY/WX    TMP DP  RH WIND       PRES   REMARKS
TUCSON         MOSUNNY   78  65  63 S3        30.11R
DAVIS-MONTHAN  SUNNY     79  64  60 SE6       30.09R
RYAN FIELD       N/A     79  64  61 CALM      30.09S
NOGALES        SUNNY     70  63  78 CALM      30.19R
SIERRA VISTA   PTSUNNY   79  61  53 W3        30.25R
SAFFORD        SUNNY     75  63  66 SW3       30.12R
$$

AZZ020-021-025-026-031-291500-
SOUTHWEST ARIZONA

CITY           SKY/WX    TMP DP  RH WIND       PRES   REMARKS
YUMA           SUNNY     88  61  40 S6        29.91R
$$

CAZ031-033-041-043-047-048-061-291500-
SOUTHERN CALIFORNIA

CITY           SKY/WX    TMP DP  RH WIND       PRES   REMARKS
DOWNTOWN L.A.  SUNNY     69  61  75 CALM      30.02R
L.A. AIRPORT   MOSUNNY   68  63  84 W5        30.03R
SAN DIEGO      MOSUNNY   72  66  81 NW9       30.02S
BURBANK        SUNNY     71  49  45 CALM      30.04R
ONTARIO        MOSUNNY   73  45  36 CALM      30.04R
RIVERSIDE      MOSUNNY   71  41  33 CALM      30.04S
PALM SPRINGS   SUNNY     85  56  37 SW5       29.95R
EL CENTRO NAS  MOSUNNY   87  52  29 NW5       29.89R
IMPERIAL       SUNNY     86  54  33 NW5       29.88R
BLYTHE           N/A    N/A N/A N/A MISG      29.91R
$$

NVZ020-UTZ003-291500-
SOUTHERN NEVADA-UTAH

CITY           SKY/WX    TMP DP  RH WIND       PRES   REMARKS
LAS VEGAS      NOT AVBL
SALT LAKE CITY CLOUDY    68  63  84 SE3       30.19R
$$

NMZ009-TXZ055-291500-
NEW MEXICO-WEST TEXAS

CITY           SKY/WX    TMP DP  RH WIND       PRES   REMARKS
ALBUQUERQUE    MOSUNNY   68  61  78 CALM      30.33R
EL PASO        TSTM      68  65  90 NE20      30.22R
$$


........................KEY........................
SKY/WX - SKY CONDITION/WEATHER
TMP    - TEMPERATURE IN FAHRENHEIT
DP     - DEW POINT IN FAHRENHEIT
RH     - RELATIVE HUMIDITY IN PERCENT
WIND   - DIRECTION AND SPEED IN MILES PER HOUR (MPH)
VRB    - VARIABLE WIND DIRECTION
PRES   - MEAN SEA LEVEL PRESSURE IN INCHES OF MERCURY
         F - FALLING PRESSURE   R - RISING PRESSURE
         S - STEADY PRESSURE
VSB    - VISIBILITY IN MILES
HX     - HEAT INDEX IN FAHRENHEIT
WCI    - WIND CHILL INDEX IN FAHRENHEIT
TC     - TEMPERATURE IN CELSIUS WHICH IS ALSO KNOWN AS
         TEMPERATURE IN CENTIGRADE
AFB    - AIR FORCE BASE
         LUKE AFB IS LUKE AIR FORCE BASE
         DAVIS-MONTHAN IS DAVIS-MONTHAN AIR FORCE BASE
NAS    - NAVAL AIR STATION
         EL CENTRO NAS IS EL CENTRO NAVAL AIR STATION
N/A    - NOT AVAILABLE



USA.gov is the U.S. government's official web portal to all federal, state and local government web resources and services.